Jerome, ID

8:21 PM MDT on June 27, 2017 (GMT -0600)
Jerome County

Weather History for KJER - January, 2014

Change the Weather History Date:

Friday, January 3, 2014

  Actual Average Record
Temperature  
Mean Temperature 31 °F 26 °F  
Max Temperature 41 °F 33 °F 50 °F (1963)
Min Temperature 21 °F 19 °F -10 °F (1949)
Degree Days  
Heating Degree Days 34 39  
Month to date heating degree days 102 117  
Since 1 July heating degree days 2886 2847  
Cooling Degree Days 0 0  
Month to date cooling degree days 0 0  
Year to date cooling degree days 0 0  
Moisture  
Dew Point 25 °F    
Average Humidity 76    
Maximum Humidity 92    
Minimum Humidity 59    
Precipitation  
Precipitation 0.00 in 0.05 in 0.56 in (1997)
Month to date precipitation 0.00 0.17  
Year to date precipitation 0.00 0.17  
Sea Level Pressure  
Sea Level Pressure 30.02 in    
Wind  
Wind Speed 13 mph (WSW)    
Max Wind Speed 29 mph    
Max Gust Speed 36 mph    
Visibility 10 miles    
Events      
T = Trace of Precipitation, MM = Missing Value Source: NWS Daily Summary

Daily Weather History Graph

Daily Weather History Graph

Search for Another Location

Airport or City:

Trip Planner

Search our weather history database for the weather conditions in past years. The results will help you decide how hot, cold, wet, or windy it might be!

Date:

Astronomy

Jan. 03, 2014 Rise Set
Actual Time 8:08 AM MST 5:16 PM MST
Civil Twilight 7:36 AM MST 5:48 PM MST
Nautical Twilight 7:00 AM MST 6:24 PM MST
Astronomical Twilight 6:26 AM MST 6:58 PM MST
Moon 9:33 AM MST (1/3) 8:35 PM MST (1/3)
Length of Visible Light 10h 12m
Length of Day
9h 08m
Waxing Crescent, 8% of the Moon is Illuminated
Jan 3
Waxing Crescent
Jan 7
First Quarter
Jan 15
Full
Jan 23
Last Quarter
Jan 30
New

Hourly Weather History & Observations

Time (MST) Temp. Windchill Dew Point Humidity Pressure Visibility Wind Dir Wind Speed Gust Speed Precip Events Conditions
12:53 AM 30.0 °F 20.5 °F 25.0 °F 82% 30.16 in 10.0 mi East 11.5 mph - N/A   Clear
1:53 AM 30.0 °F 21.1 °F 25.0 °F 82% 30.12 in 10.0 mi East 10.4 mph - N/A   Clear
2:53 AM 21.9 °F 8.2 °F 19.9 °F 92% 30.13 in 10.0 mi NE 16.1 mph - N/A   Clear
3:53 AM 26.1 °F 14.0 °F 23.0 °F 88% 30.09 in 10.0 mi NE 15.0 mph - N/A   Clear
4:53 AM 30.0 °F 22.4 °F 26.1 °F 85% 30.06 in 10.0 mi NE 8.1 mph - N/A   Scattered Clouds
5:53 AM 32.0 °F 24.2 °F 26.1 °F 79% 30.03 in 10.0 mi East 9.2 mph - N/A   Clear
6:53 AM 33.1 °F - 26.1 °F 75% 30.01 in 10.0 mi Calm Calm - N/A   Scattered Clouds
7:53 AM 28.0 °F 21.7 °F 24.1 °F 85% 30.02 in 10.0 mi NNE 5.8 mph - N/A   Scattered Clouds
8:53 AM 35.1 °F 30.1 °F 27.0 °F 72% 30.00 in 10.0 mi SSW 5.8 mph - N/A   Overcast
9:53 AM 34.0 °F 31.0 °F 28.0 °F 79% 30.03 in 10.0 mi SSW 3.5 mph - N/A   Overcast
10:53 AM 39.9 °F 31.8 °F 28.9 °F 65% 30.01 in 10.0 mi SW 15.0 mph - N/A   Scattered Clouds
11:53 AM 41.0 °F 33.1 °F 28.9 °F 62% 30.00 in 10.0 mi West 15.0 mph 25.3 mph N/A   Overcast
12:53 PM 41.0 °F 31.6 °F 28.9 °F 62% 29.96 in 10.0 mi WSW 20.7 mph 28.8 mph N/A   Clear
1:53 PM 39.9 °F 30.0 °F 28.9 °F 65% 29.95 in 10.0 mi West 21.9 mph - N/A   Clear
2:53 PM 39.9 °F 29.2 °F 28.0 °F 63% 29.95 in 10.0 mi WSW 25.3 mph 36.8 mph N/A   Clear
3:53 PM 39.0 °F 28.8 °F 26.1 °F 60% 29.95 in 10.0 mi WSW 21.9 mph 31.1 mph N/A   Partly Cloudy
4:53 PM 36.0 °F 25.6 °F 25.0 °F 64% 29.96 in 10.0 mi WSW 18.4 mph - N/A   Mostly Cloudy
5:53 PM 34.0 °F 24.6 °F 24.1 °F 67% 29.96 in 10.0 mi WSW 13.8 mph - N/A   Mostly Cloudy
6:53 PM 33.1 °F 24.4 °F 23.0 °F 66% 29.96 in 10.0 mi WSW 11.5 mph - N/A   Mostly Cloudy
7:53 PM 30.0 °F 21.7 °F 21.0 °F 69% 29.99 in 10.0 mi WSW 9.2 mph - N/A   Scattered Clouds
8:53 PM 30.9 °F 22.8 °F 21.9 °F 69% 30.00 in 10.0 mi SW 9.2 mph - N/A   Overcast
9:53 PM 30.0 °F 20.5 °F 23.0 °F 75% 30.02 in 10.0 mi SW 11.5 mph - N/A   Overcast
10:53 PM 28.0 °F 16.5 °F 24.1 °F 85% 30.02 in 10.0 mi WSW 15.0 mph - N/A   Overcast
11:53 PM 26.1 °F 14.0 °F 23.0 °F 88% 30.03 in 10.0 mi WSW 15.0 mph - N/A   Partly Cloudy